RH
100 100 100 100 100 100 100 100 100 100 100 100 100 99 97 100 89 91 100 100 100 98 65 68 82 71 59 60 83 95 100 70 76 63 40 73 75 71 40 33 49 49 78 58 48
100 100 100 100 100 100 100 100 100 100 100 100 100 100 100 100 100 100 99 99 100 98 99 93 92 83 79 76 86 82 96 72 83 72 45 58 68 63 49 35 32 64 73 67 62
100 100 100 100 100 100 100 100 100 100 100 100 100 100 100 100 100 100 100 100 100 100 88 78 96 90 88 95 82 84 86 82 82 56 50 58 61 66 55 40 32 50 70 79 67
97 100 100 100 100 100 100 100 100 96 98 100 100 100 100 100 100 100 95 100 100 100 100 98 93 95 92 80 92 86 96 85 58 59 100 93 87 72 62 44 34 52 71 94 67
100 100 100 100 100 100 100 100 100 100 100 99 96 100 97 100 100 100 100 100 100 100 100 100 94 90 96 86 90 91 100 100 98 81 74 78 79 61 64 53 36 54 72 79 78
100 100 100 97 100 100 100 100 100 100 100 100 100 98 89 78 100 94 100 100 100 100 100 100 100 83 99 85 89 92 100 95 100 99 100 98 100 77 76 50 43 57 70 70 84
77 93 98 100 100 100 100 100 100 100 100 100 100 100 99 100 100 100 100 100 100 100 100 100 90 89 97 96 79 95 100 95 95 86 97 100 100 99 73 55 46 55 54 59 70
61 65 77 97 96 100 100 100 100 100 100 100 100 98 100 100 100 100 100 100 100 100 96 99 97 64 77 100 88 84 87 95 100 100 100 99 100 100 76 55 47 48 73 56 57
52 55 74 72 77 97 100 100 100 100 100 100 100 94 79 100 100 100 100 100 100 100 100 87 89 83 77 98 100 85 62 100 100 100 96 88 90 100 78 64 51 42 73 55 59
18 39 65 69 85 75 87 100 100 100 100 100 100 85 71 89 100 100 100 100 100 98 94 91 98 88 77 62 80 100 100 100 100 100 93 93 71 97 96 80 72 50 48 52 47
10 19 41 78 69 83 71 97 100 100 100 100 100 100 85 100 100 100 100 100 97 83 82 89 71 80 99 92 99 100 99 92 97 100 99 96 70 85 100 92 92 78 49 42 46
10 11 15 65 80 90 93 89 96 100 100 100 100 100 100 100 100 100 100 99 95 92 86 70 51 100 100 99 84 90 98 76 71 100 88 86 82 90 99 100 93 74 56 45 46
6 10 12 14 45 100 100 100 94 98 100 100 100 100 100 100 100 100 100 100 100 100 100 82 84 90 86 89 82 96 87 76 69 100 74 77 66 75 96 92 90 78 78 53 37
5 6 10 12 15 46 100 100 100 97 97 98 96 94 100 100 100 98 100 100 100 100 95 71 91 100 78 90 99 93 100 100 100 94 86 83 52 69 85 68 84 91 77 48 49
5 6 6 9 13 21 54 100 100 100 100 95 99 95 100 100 100 97 100 100 100 100 100 78 93 100 96 100 100 100 100 100 100 59 51 70 45 76 77 71 95 95 81 65 75
4 5 6 6 10 15 18 57 100 100 100 95 89 96 88 100 100 100 97 100 100 100 100 85 82 80 79 91 86 100 100 100 93 70 28 71 59 74 100 100 90 62 70 73 86
4 4 6 7 7 10 16 17 70 94 80 100 100 99 84 100 100 91 98 100 100 100 94 100 92 65 76 97 99 100 100 100 100 100 58 60 96 49 99 100 100 70 74 92 91
4 3 4 6 6 8 12 17 14 20 62 93 100 100 97 79 88 100 100 100 100 91 90 95 94 82 97 90 100 100 100 100 100 100 96 78 45 66 100 98 85 92 98 100 98
6 4 4 4 6 7 8 12 12 14 32 89 96 100 100 100 99 96 100 100 100 100 100 99 87 100 100 100 100 100 100 100 100 100 100 85 66 98 99 89 98 100 98 64 81
6 4 4 3 3 5 6 6 12 15 19 29 59 91 100 100 100 100 97 96 100 100 100 100 90 96 100 100 99 100 100 100 100 100 100 92 86 90 100 100 100 100 100 100 100
6 5 5 4 4 3 4 7 9 11 16 20 42 64 100 100 100 100 100 100 100 100 100 100 99 95 100 96 100 100 100 100 100 100 100 79 89 100 100 100 100 100 100 100 98
5 5 4 3 3 4 5 6 8 10 10 12 18 38 56 99 100 100 100 100 100 100 100 100 100 100 82 100 100 100 100 100 100 91 83 80 74 100 100 100 100 100 98 87 92
5 5 4 3 3 5 6 6 5 8 11 12 12 17 51 70 73 100 100 100 100 100 100 100 100 78 86 79 95 98 100 100 100 100 98 88 40 90 99 90 99 100 100 100 100
5 5 4 4 5 5 6 6 6 7 8 10 11 11 15 24 73 99 100 100 100 100 100 100 100 100 88 69 73 100 100 100 100 100 90 94 79 53 94 92 97 100 100 100 100
5 5 4 5 6 4 4 5 6 7 8 8 10 13 13 15 38 73 100 100 100 100 100 100 100 100 98 78 88 78 88 100 100 100 100 80 80 98 60 92 89 100 100 100 100
7 7 5 5 5 5 7 12 9 8 6 6 5 9 11 12 14 35 86 100 100 100 100 100 100 100 85 75 85 87 70 87 100 100 100 72 71 100 93 42 65 100 99 95 100
7 8 10 10 9 13 13 10 10 8 5 5 4 6 5 10 14 14 11 37 91 100 100 100 100 100 100 93 75 91 69 78 79 70 99 100 79 100 97 100 94 99 100 100 100
Wind_Speed
102 103 98 95 93 93 92 89 85 86 83 80 76 77 73 74 72 79 73 68 69 74 70 68 67 67 63 54 54 48 47 52 50 45 35 35 38 43 32 33 32 35 27 31 31
111 108 106 101 101 100 97 94 90 88 86 84 81 79 80 79 79 78 78 75 69 75 75 70 63 62 63 57 58 52 53 52 49 46 39 35 40 43 40 37 35 33 28 31 33
113 112 113 106 102 101 101 97 94 92 90 90 86 86 85 83 81 84 85 85 78 81 77 76 66 63 61 59 60 58 57 52 52 47 40 40 43 46 44 41 38 35 27 30 33
117 115 113 113 111 109 106 102 100 96 97 93 95 90 89 87 82 84 87 86 84 84 83 79 74 66 66 61 64 57 57 54 52 44 45 46 45 49 44 43 37 37 30 30 33
121 120 119 118 116 113 108 107 106 103 101 100 102 98 92 88 81 86 87 89 87 85 80 79 74 67 66 66 62 59 59 53 51 49 49 50 52 50 46 48 38 38 33 26 33
125 123 124 122 119 116 112 111 107 107 106 105 101 103 97 93 90 91 87 88 87 89 86 81 77 69 64 64 64 60 59 58 56 56 54 52 51 49 49 45 37 42 41 34 33
128 127 125 120 121 121 117 112 107 105 104 101 100 99 99 90 92 96 92 89 88 89 84 86 81 71 65 66 64 64 60 61 62 61 57 52 51 55 55 45 39 40 40 34 33
128 128 128 127 121 120 116 114 112 106 105 100 101 101 97 91 93 93 95 92 91 90 86 84 80 73 67 69 66 65 62 61 66 67 66 59 50 56 58 47 41 42 35 34 31
131 129 127 122 124 122 116 112 110 106 103 103 102 102 93 90 90 88 91 90 90 88 86 85 80 75 71 67 69 67 61 68 76 73 71 63 53 57 57 48 40 40 38 35 28
128 131 131 126 120 122 120 116 112 112 108 105 103 105 91 87 88 92 91 91 89 87 85 82 81 75 73 70 65 74 75 75 69 72 71 61 55 55 54 46 43 42 44 37 32
124 127 133 134 125 122 119 116 113 115 111 108 105 100 94 90 91 92 92 92 90 89 85 84 85 73 71 77 76 77 78 72 67 75 74 65 59 58 54 49 50 48 49 45 40
123 125 127 138 133 128 123 119 118 119 116 110 109 104 100 92 90 91 91 89 88 87 88 88 77 68 79 80 80 78 76 68 66 70 73 69 57 56 60 55 53 50 51 47 42
109 122 128 128 134 133 129 127 125 123 121 114 112 107 101 99 92 93 91 89 87 90 88 86 67 82 80 80 77 73 71 66 65 70 72 67 55 57 53 56 53 48 53 52 45
94 108 121 131 128 134 136 136 132 129 126 117 112 111 106 104 100 87 90 89 87 88 89 84 74 80 79 73 69 64 63 66 65 69 66 71 49 55 53 54 53 54 50 50 47
81 93 105 119 129 130 135 142 140 135 132 121 118 109 110 111 97 93 90 92 88 88 90 77 76 83 83 68 74 62 71 71 71 73 72 62 59 43 49 49 54 54 54 56 54
72 81 93 103 117 128 131 137 149 143 140 129 121 114 112 110 104 96 97 95 91 91 92 81 82 84 77 77 75 66 70 74 74 72 67 53 64 34 44 51 60 58 53 52 54
66 73 82 93 103 117 128 134 142 147 141 135 127 121 114 109 106 105 102 103 99 95 88 80 84 79 76 73 71 68 71 74 71 68 46 54 56 36 46 56 55 54 55 54 55
60 67 75 82 92 104 117 130 131 130 134 138 126 124 123 116 114 112 111 108 104 94 87 89 85 74 71 71 68 72 71 72 71 66 54 61 51 41 56 49 49 46 51 55 56
53 60 68 76 82 93 104 116 116 117 127 132 131 131 129 123 120 117 118 114 106 100 97 92 87 77 77 75 76 75 76 66 74 70 67 55 45 51 52 56 47 41 47 46 49
49 53 61 68 75 82 90 92 105 115 120 126 135 137 133 126 128 126 124 116 107 103 101 98 95 85 85 85 84 77 78 78 79 73 69 52 50 48 52 51 60 59 55 55 56
44 46 57 60 66 69 70 78 89 104 119 125 130 142 138 133 133 129 131 118 115 108 108 103 102 95 94 88 79 81 86 84 80 74 70 56 51 52 53 52 53 57 60 61 61
39 41 52 55 55 57 63 78 85 95 105 116 126 133 139 135 136 134 132 126 119 112 111 105 109 105 98 93 93 92 92 89 84 72 73 73 58 55 56 55 52 55 57 58 56
36 39 46 48 45 50 63 66 74 84 93 100 109 123 132 139 144 140 134 126 123 118 113 107 111 110 107 104 101 96 88 94 83 86 77 79 59 57 60 59 58 52 54 57 60
34 37 42 43 43 50 57 62 67 77 81 88 95 105 119 125 141 142 141 137 130 125 121 122 118 115 109 97 94 99 94 92 89 92 75 75 58 61 62 64 65 64 60 60 65
29 35 40 36 45 50 50 56 61 69 77 83 88 94 101 114 131 139 144 140 137 129 128 130 126 126 124 110 112 107 104 103 102 93 92 75 71 63 68 66 67 68 63 59 64
24 25 30 37 39 38 41 51 58 68 72 77 79 87 99 101 114 133 140 145 143 138 137 136 136 130 125 120 116 115 108 111 108 101 99 85 81 61 72 72 67 68 67 65 63
18 19 23 31 33 32 41 47 50 65 61 66 70 89 96 91 102 109 124 136 150 149 147 147 140 139 135 130 123 128 115 113 112 110 101 94 73 74 84 78 75 76 73 70 71
Wind_Direction
248 246 248 247 247 248 247 247 249 248 248 249 252 248 248 251 251 252 258 264 268 266 270 272 277 278 278 276 266 270 263 267 272 278 279 271 281 289 294 282 280 282 291 293 294
246 246 247 247 247 247 247 248 248 248 248 250 248 249 248 250 255 254 254 260 266 266 270 272 274 274 281 273 262 265 268 268 271 273 271 266 275 285 292 283 273 271 278 286 291
244 245 246 247 247 247 246 246 246 247 248 249 249 250 248 247 252 255 257 261 261 266 267 269 268 272 272 265 262 261 264 266 268 267 269 267 274 282 289 286 276 273 274 281 283
243 242 243 245 246 247 248 249 248 248 249 249 248 248 251 251 251 254 256 257 258 261 264 265 266 266 264 264 259 261 264 264 268 270 268 269 274 278 286 282 275 276 271 277 278
243 242 243 243 244 246 246 247 249 249 250 251 250 250 250 251 251 250 253 254 255 257 260 262 261 260 257 257 254 258 263 264 263 265 265 269 275 278 283 277 271 273 266 265 273
243 241 242 242 243 244 242 246 246 247 248 250 252 250 251 251 250 252 253 254 251 254 256 258 259 258 251 256 252 254 255 257 260 267 266 268 274 278 277 271 268 269 267 268 265
240 242 241 242 242 243 244 244 244 246 247 247 249 248 249 249 251 252 249 251 252 253 254 254 256 254 250 252 252 249 250 261 265 264 263 265 271 272 275 269 272 268 268 263 267
240 239 241 240 241 242 242 241 243 244 244 245 246 247 247 247 249 250 250 249 250 252 252 251 251 254 249 251 253 251 250 259 258 260 262 263 266 266 270 269 267 262 266 263 269
237 237 237 239 239 239 239 238 239 240 242 243 244 246 244 244 247 247 246 248 245 246 249 250 249 251 247 248 252 252 253 256 260 262 263 262 261 262 266 265 263 254 262 262 261
237 237 237 237 238 238 238 237 238 239 240 240 242 245 243 242 242 244 244 245 246 247 247 251 251 249 249 252 251 250 248 252 259 263 266 267 261 256 257 256 261 261 256 255 258
239 238 237 237 236 237 238 237 235 237 238 238 240 243 242 236 238 240 244 244 246 248 248 247 251 251 251 249 245 245 250 252 257 262 264 264 258 251 244 250 255 261 255 252 256
239 239 238 235 236 237 238 239 236 235 238 238 237 240 241 238 235 241 243 245 247 250 250 248 251 250 248 247 250 249 252 254 256 259 260 258 252 251 251 255 258 254 251 252 252
238 238 237 237 235 235 237 238 238 236 236 238 238 235 239 239 234 237 242 245 246 246 247 247 245 245 245 247 250 253 256 256 253 254 257 254 252 254 249 251 255 247 246 250 257
238 237 237 236 236 235 233 235 238 237 237 235 238 236 235 239 236 238 239 243 245 246 244 246 244 245 247 248 251 252 254 249 249 247 252 256 250 257 249 250 248 245 243 245 256
240 237 236 236 236 235 235 236 234 237 239 236 235 236 236 237 239 236 238 241 242 245 247 246 242 245 245 242 242 245 246 247 247 249 248 255 255 246 249 250 243 244 243 242 249
242 239 236 236 234 234 234 233 235 236 238 238 236 237 235 237 240 237 239 239 240 243 244 245 241 243 247 244 245 246 249 253 254 255 255 250 255 233 241 239 238 244 242 241 241
246 241 237 236 233 233 233 234 234 236 238 236 237 237 236 235 238 240 239 241 241 244 245 248 245 242 244 244 245 246 247 248 248 252 251 243 246 209 236 238 241 243 242 241 241
247 244 240 237 234 232 233 233 234 234 235 235 234 236 239 236 236 238 240 239 241 244 243 243 242 243 240 243 242 242 244 246 247 247 238 226 234 232 229 235 242 243 242 242 247
252 246 243 239 236 234 234 233 234 234 233 233 231 233 235 236 237 238 237 239 240 241 243 241 240 242 240 240 241 243 240 243 243 240 238 238 225 230 234 236 232 231 243 244 244
255 249 245 242 239 236 235 235 234 235 235 233 231 231 234 234 237 237 236 238 237 240 241 239 239 238 238 239 236 242 235 236 241 241 238 232 224 224 232 232 231 233 236 239 240
258 252 249 244 241 239 237 234 233 234 233 233 230 230 229 232 234 235 236 238 236 235 236 235 237 234 237 238 243 244 242 241 239 238 240 228 225 223 229 232 234 239 241 242 245
260 252 251 248 243 239 236 231 230 231 233 232 231 232 230 229 231 232 234 235 234 234 233 233 236 235 234 234 237 239 241 241 241 243 241 235 217 222 230 233 235 242 247 246 246
263 252 248 248 244 236 235 233 231 233 232 233 233 232 232 232 231 233 234 233 233 234 234 233 235 236 234 230 232 234 238 242 240 240 241 241 225 226 230 233 236 241 247 250 250
263 250 246 241 239 235 233 231 232 233 232 232 233 233 231 231 232 229 232 233 234 236 235 237 236 238 237 234 236 237 240 243 243 242 240 243 239 225 231 231 233 236 243 249 251
265 255 248 236 237 234 233 234 233 233 230 231 231 232 233 231 232 230 230 230 233 234 235 236 236 239 238 237 235 233 232 238 238 240 239 235 235 235 228 233 235 237 238 246 253
277 260 250 244 241 239 232 232 232 235 233 232 228 231 231 229 231 230 230 228 229 230 232 233 236 239 237 233 233 234 231 234 236 236 241 235 233 234 242 233 235 242 245 249 251
290 258 247 241 233 236 240 235 234 238 237 236 233 233 232 230 232 229 229 227 226 228 230 231 233 235 236 236 234 236 232 232 235 232 236 237 235 238 237 239 239 242 244 249 254